{"data":{"norad_id":63143,"intl_designator":"2025-043M","name":"STARLINK-11579 [DTC]","alt_names":[],"object_type":"PAYLOAD","status":"ACTIVE","operator":null,"country":"US","launch_date":"2025-03-03","launch_site_code":"AFETR","launch_vehicle":null,"mission":null,"orbit_class":"UNKNOWN","rcs_meters":null,"size_class":null,"mass_kg":null,"dimensions":null,"purposes":["comms"],"wikipedia_slug":null,"has_3d_model":false,"image_url":null,"decayed_at":null,"tle_current":{"epoch":"2026-09-21T22:57:16.848000Z","epoch_age_seconds":36469,"freshness":"FRESH","line1":"1 63143U 25043M   26264.95644500  .00123223  00000+0  94453-3 0  9994","line2":"2 63143  43.0002 147.3374 0002315 247.6181 112.4442 15.70966861 90227","mean_motion":15.70966861,"eccentricity":0.0002315,"inclination_deg":43.0002,"raan_deg":147.3374,"arg_perigee_deg":247.6181,"mean_anomaly_deg":112.4442,"bstar":0.00094453,"rev_number":9022,"period_min":91.66329575427,"perigee_km":354.5735101011,"apogee_km":357.69147687658,"semimajor_km":6734.2694934888,"source":"CELESTRAK","updated_at":"2026-09-22T09:00:49.792144Z"}}}